Location: Llanfihangel-Ystrad
(52.1833°N, 4.1667°W)
Time: 17:02:47
(UTC+00:00)

STARLINK-1165 - Pass Details

Date: 17 February 2020
Orbit: 553 x 556 km, 53.0° (Epoch: 30 March)

Event Time Altitude Azimuth Distance (km) Brightness Sun altitude
Exits shadow 06:19:02 17° 280° (W) 1,462 5.1 -11.4°
Maximum altitude 06:22:15 84° 9° (N) 565 3.6 -10.9°
Drops below altitude 10° 06:26:31 10° 98° (E) 1,869 8.0 -10.2°
Sets 06:28:41 0° 99° (E) 2,734 9.6 -9.9°
